Location: Unspecified
(0.0000°N, 0.0000°E)
Time: 19:15:19
(UTC+00:00)

CUTE-I - Pass Details

Date: 28 May 2019
Orbit: 810 x 825 km, 98.7° (Epoch: 24 June)

Event Time Altitude Azimuth Distance (km) Brightness Sun altitude
Rises 05:24:24 0° 29° (NNE) 3,322 ? -7.6°
Reaches altitude 10° 05:26:55 10° 38° (NE) 2,395 ? -7.1°
Maximum altitude 05:31:43 36° 103° (ESE) 1,278 ? -5.9°
Drops below altitude 10° 05:36:33 10° 168° (SSE) 2,413 ? -4.8°
Sets 05:39:05 0° 176° (S) 3,349 ? -4.2°
